Tracking 23764 objects as of 17-Oct-2021
HD Live streaming from Space Station
objects crossing your sky now

CZ-2C R/B

Track CZ-2C R/B now!
10-day predictions


NORAD ID: 43610
Int'l Code: 2018-068B
Perigee: 655.2 km
Apogee: 783.9 km
Inclination: 98.6 °
Period: 99.0 minutes
Semi major axis: 7090 km
RCS: Unknown
Launch date: September 6, 2008
Source: People's Republic of China (PRC)
Launch site: Taiyaun Space Center, China (TSC)

Note: This is a ROCKET BODY
aabbcc
Your satellite tracking list
Your tracking list is empty




NASA's NSSDC Master Catalog

Two Line Element Set (TLE):
1 43610U 18068B   21290.27515948  .00000074  00000-0  28263-4 0  9998
2 43610  98.5829  44.4175 0090792 152.5900 208.0128 14.54067284165083
Source of the keplerian elements: AFSPC